GW4300 Weather Reports


time (UTC)temp
F
wind
direction
speed
knots
gust
knots
rain 1hr
in
rain 24hr
in
rain mn
in
humidity
%
barometer
mb
20260507071535 0 0.0 0.0 0.00 0.07 0.01 1010.4
20260507071015 0 0.0 0.0 0.00 0.07 0.01 1010.3
20260507070509 0 0.0 0.0 0.00 0.07 0.01 1010.4
20260507070027 0 0.0 0.0 0.00 0.07 0.01 1010.6
20260507065514 0 0.0 0.0 0.00 0.07 0.01 1010.7
20260507065011 0 0.0 0.0 0.00 0.07 0.01 1010.6
20260507064529 0 0.0 0.0 0.00 0.07 0.01 1010.3
20260507064009 0 0.0 0.0 0.00 0.07 0.01 1010.3
20260507063513 0 0.0 0.0 0.00 0.07 0.01 1010.2
20260507063029 0 0.0 0.0 0.01 0.07 0.01 1010.1
20260507062510 0 0.0 0.0 0.01 0.07 0.01 1010.2
20260507062012 0 0.0 0.0 0.01 0.07 0.01 1010.4
20260507061528 0 0.0 0.0 0.01 0.07 0.01 1010.6
20260507061011 0 0.9 6.1 0.01 0.07 0.01 84 1010.4
20260507060505 56 306 0.0 6.1 0.01 0.07 0.01 84 1010.7
20260507060020 57 336 1.7 6.1 0.01 0.07 0.01 84 1010.6
20260507055506 58 17 1.7 4.3 0.01 0.07 0.01 86 1010.6
20260507055009 58 360 2.6 4.3 0.01 0.07 0.01 86 1010.5
20260507054526 58 350 1.7 6.1 0.01 0.07 0.01 85 1010.5
20260507054012 59 340 1.7 6.1 0.01 0.07 0.01 84 1010.4
20260507053511 60 282 1.7 5.2 0.01 0.07 0.01 83 1010.4
20260507051525 61 298 0.9 3.5 0.00 0.06 0.00 76 1011.0
20260507050507 62 225 0.9 2.6 0.00 0.06 0.00 77 1010.9
20260507050029 63 268 0.9 5.2 0.00 0.06 0.00 76 1010.5
20260507045508 63 324 1.7 5.2 0.00 0.06 0.00 75 1010.7
20260507045006 63 283 0.9 3.5 0.00 0.06 0.00 76 1010.5
20260507044522 64 307 0.9 2.6 0.00 0.06 0.00 76 1010.5
20260507044008 64 360 0.9 2.6 0.00 0.06 0.00 77 1010.6
20260507043507 64 325 0.0 2.6 0.00 0.06 0.00 77 1010.2
20260507043033 64 327 0.9 3.5 0.00 0.06 0.00 77 1010.1
20260507042511 64 302 0.0 3.5 0.00 0.06 0.00 77 1010.1
20260507042012 64 290 0.0 1.7 0.00 0.06 0.00 77 1010.0
20260507041528 64 311 0.0 2.6 0.00 0.06 0.00 77 1009.8
20260507041007 64 311 0.0 2.6 0.00 0.06 0.00 76 1009.5
20260507040023 65 341 0.0 1.7 0.00 0.06 0.00 75 1009.5
20260507040003 65 329 0.0 1.7 0.00 0.06 0.00 75 1009.5
20260507035504 65 319 0.0 1.7 0.00 0.06 0.06 75 1009.7
20260507035003 65 317 0.0 1.7 0.00 0.06 0.06 75 1010.0
20260507034508 65 346 0.9 2.6 0.00 0.06 0.06 75 1010.0
20260507033504 65 11 0.9 2.6 0.00 0.06 0.06 76 1009.8
20260507033003 65 346 0.9 3.5 0.00 0.06 0.06 77 1009.8
20260507032503 66 300 0.0 3.5 0.00 0.06 0.06 78 1009.6
20260507032002 66 346 0.0 2.6 0.00 0.06 0.06 78 1009.6
20260507031508 66 318 0.0 2.6 0.00 0.06 0.06 78 1009.5
20260507031004 66 5 0.9 2.6 0.00 0.06 0.06 77 1009.6
20260507030504 66 307 0.0 1.7 0.00 0.06 0.06 80 1009.4
20260507030018 66 10 0.9 2.6 0.00 0.06 0.06 82 1009.4
20260507025506 66 186 0.9 2.6 0.00 0.06 0.06 82 1009.4
20260507025002 66 275 0.0 1.7 0.00 0.06 0.06 83 1009.5
20260507024504 66 269 0.0 1.7 0.00 0.06 0.06 83 1009.3
20260507024003 66 244 0.0 1.7 0.00 0.06 0.06 83 1009.1
20260507023503 66 244 0.0 1.7 0.00 0.06 0.06 83 1009.1
20260507023008 66 297 0.9 1.7 0.00 0.06 0.06 83 1009.2
20260507021517 67 211 0.0 0.0 0.00 0.06 0.06 83 1009.0
20260507021005 67 211 0.0 0.0 0.00 0.06 0.06 82 1008.9
20260507020504 67 211 0.0 0.0 0.00 0.06 0.06 82 1008.8
20260507020007 67 211 0.0 0.0 0.00 0.06 0.06 82 1008.8
20260507015506 67 211 0.0 0.0 0.00 0.06 0.06 81 1008.8
20260507015005 67 211 0.0 0.0 0.00 0.06 0.06 81 1009.0
20260507014517 67 211 0.0 0.0 0.00 0.06 0.06 81 1009.1
20260507014009 67 211 0.0 1.7 0.00 0.06 0.06 81 1009.4
20260507013504 67 211 0.0 1.7 0.00 0.06 0.06 81 1009.5
20260507013033 67 235 0.0 0.0 0.00 0.06 0.06 81 1009.4
20260507012503 67 236 0.0 0.0 0.00 0.06 0.06 81 1009.3
20260507012003 67 240 0.0 0.0 0.00 0.06 0.06 81 1009.5
20260507011509 67 240 0.0 0.0 0.00 0.06 0.06 81 1009.5
20260507011003 67 241 0.0 0.0 0.00 0.06 0.06 81 1009.5
20260507010504 67 242 0.0 0.0 0.00 0.06 0.06 80 1009.4
20260507010018 67 242 0.0 0.0 0.00 0.06 0.06 80 1009.2
20260507004508 67 220 0.0 0.0 0.00 0.06 0.06 80 1008.9
20260507004003 68 220 0.0 0.0 0.00 0.06 0.06 79 1008.8
20260507003503 68 220 0.0 0.0 0.00 0.06 0.06 79 1009.0
20260507003017 68 231 0.0 0.0 0.00 0.06 0.06 79 1008.9
20260507002504 68 231 0.0 0.0 0.00 0.06 0.06 79 1008.9
20260507002011 68 231 0.0 0.0 0.00 0.06 0.06 79 1009.0
20260507001520 68 231 0.0 0.9 0.00 0.06 0.06 79 1009.1
20260507001010 68 230 0.0 0.9 0.00 0.06 0.06 78 1009.1
20260507000505 68 281 0.0 1.7 0.00 0.06 0.06 78 1009.0
20260507000008 68 284 0.0 1.7 0.00 0.06 0.06 78 1008.9
20260506235505 68 255 0.0 1.7 0.00 0.06 0.06 78 1009.1
20260506235005 68 196 0.0 0.9 0.00 0.06 0.06 78 1008.8
20260506234517 69 227 0.0 0.9 0.00 0.06 0.06 78 1008.6
20260506234009 69 217 0.0 0.9 0.00 0.06 0.06 78 1008.6
20260506233507 69 243 0.0 1.7 0.00 0.06 0.06 77 1008.5
20260506232503 69 276 0.0 1.7 0.00 0.06 0.06 77 1008.3
20260506232006 69 234 0.0 0.0 0.00 0.06 0.06 77 1008.4
20260506231512 69 263 0.0 1.7 0.00 0.06 0.06 77 1008.4
20260506231004 69 244 0.0 1.7 0.00 0.06 0.06 76 1008.4
20260506230504 69 205 0.0 1.7 0.00 0.06 0.06 77 1008.2
20260506230020 69 258 0.0 1.7 0.00 0.06 0.06 76 1008.5
20260506225507 70 261 0.0 0.9 0.00 0.06 0.06 76 1008.4
20260506225008 70 276 0.0 1.7 0.00 0.06 0.06 76 1008.2
20260506224512 70 231 0.0 1.7 0.00 0.06 0.06 75 1008.2
20260506224006 70 290 0.0 1.7 0.00 0.06 0.06 75 1008.3
20260506223504 70 235 0.9 2.6 0.00 0.06 0.06 75 1008.3
20260506223013 70 246 0.0 3.5 0.00 0.06 0.06 75 1008.3
20260506222505 70 293 0.0 3.5 0.00 0.06 0.06 75 1008.3
20260506222007 70 263 0.0 4.3 0.00 0.06 0.06 75 1008.4
20260506221524 70 255 0.9 4.3 0.00 0.06 0.06 75 1008.4
20260506221009 70 271 1.7 4.3 0.00 0.06 0.06 74 1008.5
20260506220503 70 251 0.0 3.5 0.00 0.06 0.06 75 1008.4
20260506215505 70 298 0.9 5.2 0.00 0.06 0.06 74 1008.5
20260506215006 70 254 0.9 3.5 0.00 0.06 0.06 74 1008.4
20260506214520 70 173 0.9 2.6 0.00 0.06 0.06 74 1008.1
20260506213509 70 250 0.9 2.6 0.00 0.06 0.06 74 1008.2
20260506213025 70 236 0.0 3.5 0.00 0.06 0.06 74 1008.1
20260506212002 70 311 0.0 2.6 0.00 0.06 0.06 75 1008.2
20260506211516 70 227 0.9 3.5 0.00 0.06 0.06 74 1008.2
20260506211007 70 144 0.9 3.5 0.00 0.06 0.06 73 1008.0
20260506210507 70 290 0.9 3.5 0.00 0.06 0.06 74 1007.9
20260506210023 70 178 1.7 3.5 0.00 0.06 0.06 74 1007.9
20260506205507 70 250 0.0 4.3 0.00 0.06 0.06 73 1007.9
20260506205008 71 213 0.9 4.3 0.00 0.06 0.06 73 1007.8
20260506204525 71 219 0.0 2.6 0.00 0.06 0.06 73 1007.9
20260506204006 71 165 0.9 2.6 0.00 0.06 0.06 72 1007.9
20260506203506 71 194 0.0 3.5 0.00 0.06 0.06 73 1007.8
20260506203023 71 200 0.9 3.5 0.00 0.06 0.06 72 1007.7
20260506201530 72 273 0.9 3.5 0.00 0.06 0.06 71 1007.7
20260506201012 72 296 1.7 4.3 0.00 0.06 0.06 72 1007.7
20260506200509 71 260 0.9 4.3 0.00 0.06 0.06 72 1007.7
20260506200013 71 236 1.7 7.0 0.00 0.06 0.06 73 1007.7
20260506195506 71 263 3.5 7.0 0.00 0.06 0.06 71 1007.7
20260506195007 71 275 0.0 2.6 0.00 0.06 0.06 71 1007.7
20260506194523 72 223 0.9 2.6 0.00 0.06 0.06 71 1007.8
20260506194010 72 257 0.9 7.8 0.00 0.06 0.06 71 1007.9
20260506193512 72 213 1.7 7.8 0.00 0.06 0.06 71 1007.8
20260506193024 71 181 0.0 3.5 0.00 0.06 0.06 74 1007.8
20260506192509 70 279 0.9 4.3 0.00 0.06 0.06 73 1007.9
20260506192007 70 211 0.9 4.3 0.00 0.06 0.06 75 1008.0
20260506191007 69 254 0.9 6.1 0.00 0.06 0.06 75 1008.0
20260506190033 69 268 0.9 5.2 0.00 0.06 0.06 76 1008.2
20260506185509 69 210 0.0 4.3 0.00 0.06 0.06 77 1008.3
20260506185009 69 190 0.9 4.3 0.00 0.06 0.06 77 1008.4
20260506184525 68 144 1.7 4.3 0.00 0.06 0.06 75 1008.5
20260506184008 68 174 0.9 3.5 0.00 0.06 0.06 76 1008.5
20260506183508 68 260 0.0 5.2 0.00 0.06 0.06 76 1008.5
20260506183019 68 239 1.7 5.2 0.00 0.06 0.06 76 1008.7
20260506182506 68 294 1.7 5.2 0.00 0.06 0.06 77 1008.7
20260506182014 68 186 1.7 5.2 0.00 0.06 0.06 79 1008.8
20260506181526 67 250 1.7 7.0 0.00 0.06 0.06 79 1008.7
20260506181012 67 257 2.6 7.0 0.00 0.06 0.06 78 1008.9
20260506180511 67 275 1.7 6.1 0.00 0.06 0.06 79 1008.8
20260506180005 67 273 0.9 6.1 0.00 0.06 0.06 79 1008.9
20260506175502 66 260 1.7 6.1 0.00 0.06 0.06 80 1009.0
20260506175003 66 235 2.6 8.7 0.00 0.06 0.06 80 1009.0
20260506174505 66 250 1.7 8.7 0.00 0.06 0.06 80 1009.0
20260506174003 66 306 1.7 8.7 0.00 0.06 0.06 82 1008.9
20260506173504 66 237 0.0 6.1 0.00 0.06 0.06 82 1009.0
20260506173005 65 352 1.7 6.1 0.00 0.06 0.06 82 1009.1
20260506172503 65 231 0.9 6.1 0.00 0.06 0.06 83 1009.2
20260506172003 65 257 0.9 2.6 0.00 0.06 0.06 85 1009.2
20260506171513 65 288 1.7 2.6 0.00 0.06 0.06 85 1009.1
20260506171003 64 249 0.9 6.1 0.00 0.06 0.06 85 1009.2
20260506170502 64 270 0.9 6.1 0.00 0.06 0.06 85 1009.1
20260506170004 64 285 1.7 6.1 0.00 0.06 0.06 85 1009.2
20260506165507 64 106 1.7 3.5 0.00 0.06 0.06 85 1009.3
20260506165005 63 282 1.7 6.1 0.01 0.06 0.06 86 1009.4
20260506164505 63 197 0.9 6.1 0.01 0.06 0.06 86 1009.5
20260506164002 63 287 1.7 6.1 0.01 0.06 0.06 87 1009.3
20260506163503 63 250 0.0 3.5 0.01 0.06 0.06 88 1009.3
20260506163004 63 313 0.9 3.5 0.01 0.06 0.06 88 1009.4
20260506162505 63 231 0.9 3.5 0.02 0.06 0.06 89 1009.3
20260506162007 62 119 0.9 2.6 0.02 0.06 0.06 89 1009.2
20260506161505 62 215 0.0 2.6 0.02 0.06 0.06 89 1009.4
20260506161003 62 40 0.9 3.5 0.02 0.06 0.06 89 1009.6
20260506160506 62 187 0.0 3.5 0.02 0.06 0.06 88 1009.8
20260506160005 62 169 0.0 2.6 0.03 0.06 0.06 89 1009.8
20260506155503 62 139 0.0 4.3 0.04 0.06 0.06 89 1009.8
20260506155003 62 157 0.0 4.3 0.04 0.05 0.05 89 1009.7
20260506154524 62 279 0.0 3.5 0.04 0.05 0.05 88 1009.9
20260506154003 62 109 0.0 3.5 0.05 0.05 0.05 88 1009.3
20260506153504 61 184 0.0 2.6 0.05 0.05 0.05 88 1009.6
20260506153006 62 332 0.9 2.6 0.05 0.05 0.05 88 1009.9
20260506152504 62 327 0.0 1.7 0.04 0.04 0.04 88 1010.0
20260506152006 62 266 0.0 1.7 0.04 0.04 0.04 88 1010.3
20260506151506 62 111 0.0 0.9 0.04 0.04 0.04 88 1010.4
20260506151002 62 101 0.0 1.7 0.04 0.04 0.04 88 1010.5
20260506150502 62 110 0.0 1.7 0.04 0.04 0.04 87 1010.5
20260506150007 62 305 0.0 2.6 0.03 0.03 0.03 86 1010.5
20260506145505 62 316 0.9 2.6 0.02 0.02 0.02 85 1010.6
20260506145003 62 234 0.0 1.7 0.01 0.01 0.01 85 1010.6
20260506144505 62 188 0.0 2.6 0.01 0.01 0.01 84 1010.5
20260506144004 62 19 0.9 2.6 0.00 0.00 0.00 83 1010.4
20260506143507 63 229 0.9 2.6 0.00 0.00 0.00 82 1010.4
20260506143009 63 173 0.0 2.6 0.00 0.00 0.00 82 1010.4
20260506142503 63 321 0.0 1.7 0.00 0.00 0.00 82 1010.4
20260506142004 63 126 0.0 3.5 0.00 0.00 0.00 81 1010.5
20260506141509 64 213 0.0 3.5 0.00 0.00 0.00 79 1010.5
20260506141007 64 164 0.0 1.7 0.00 0.00 0.00 79 1010.5
20260506140504 64 165 0.0 3.5 0.00 0.00 0.00 79 1010.5
20260506140017 64 168 0.0 5.2 0.00 0.00 0.00 78 1010.6
20260506135503 65 5 0.0 5.2 0.00 0.00 0.00 76 1010.8
20260506135003 65 209 0.0 3.5 0.00 0.00 0.00 75 1011.0
20260506134508 65 254 0.0 3.5 0.00 0.00 0.00 73 1010.9
20260506134007 65 135 0.9 3.5 0.00 0.00 0.00 72 1010.8
20260506133505 66 329 0.0 2.6 0.00 0.00 0.00 74 1010.7
20260506133006 66 192 0.0 1.7 0.00 0.00 0.00 73 1010.6
20260506131007 66 231 0.9 3.5 0.00 0.00 0.00 71 1010.2
20260506130507 66 198 0.0 3.5 0.00 0.00 0.00 72 1010.3
20260506125503 66 200 0.9 3.5 0.00 0.00 0.00 72 1010.3
20260506125005 66 123 0.9 3.5 0.00 0.00 0.00 72 1010.3
20260506124009 66 174 0.0 5.2 0.00 0.00 0.00 73 1010.3
20260506123502 66 296 0.0 3.5 0.00 0.00 0.00 73 1010.5
20260506123010 66 130 0.0 4.3 0.00 0.00 0.00 73 1010.5
20260506122509 66 309 0.9 4.3 0.00 0.00 0.00 73 1010.7
20260506122003 66 9 0.9 3.5 0.00 0.00 0.00 73 1010.7
20260506121510 66 123 0.9 6.1 0.00 0.00 0.00 73 1010.7
20260506120010 66 295 0.9 4.3 0.00 0.00 0.00 72 1010.5
20260506115504 66 44 1.7 3.5 0.00 0.00 0.00 72 1010.4
20260506115003 66 150 0.9 3.5 0.00 0.00 0.00 73 1010.4
20260506114510 66 204 0.9 3.5 0.00 0.00 0.00 73 1010.3
20260506114005 66 114 0.9 4.3 0.00 0.00 0.00 73 1010.2
20260506113507 66 61 0.9 4.3 0.00 0.00 0.00 73 1010.1
20260506112502 65 317 0.0 3.5 0.00 0.00 0.00 74 1010.2
20260506111004 0 0.0 0.0 0.00 0.00 0.00 1010.0
20260506110506 0 0.0 0.0 0.00 0.00 0.00 1010.0
20260506110017 0 0.0 0.0 0.00 0.00 0.00 1009.9
20260506104007 0 0.0 0.0 0.00 0.00 0.00 1009.9
20260506103507 0 0.0 0.0 0.00 0.00 0.00 1009.9
20260506103019 0 0.0 0.0 0.00 0.00 0.00 1009.8
20260506102508 0 0.0 0.0 0.00 0.00 0.00 1010.0
20260506102006 0 0.0 0.0 0.00 0.00 0.00 1009.9
20260506101517 0 0.0 0.0 0.00 0.00 0.00 1009.8
20260506101007 0 0.0 0.0 0.00 0.00 0.00 1009.9
20260506100505 0 0.0 0.0 0.00 0.00 0.00 1009.8
20260506100016 0 0.0 0.0 0.00 0.00 0.00 1009.8
20260506095507 0 0.0 0.0 0.00 0.00 0.00 1009.8
20260506095009 0 0.0 0.0 0.00 0.00 0.00 1009.9
20260506094521 0 0.0 0.0 0.00 0.00 0.00 1009.8
20260506094008 0 0.0 0.0 0.00 0.00 0.00 1009.8
20260506093507 0 0.0 0.0 0.00 0.00 0.00 1009.9
20260506092504 0 0.0 0.0 0.00 0.00 0.00 1009.9
20260506092009 0 0.0 0.0 0.00 0.00 0.00 1010.0
20260506091521 0 0.0 0.0 0.00 0.00 0.00 1010.0
20260506091007 0 0.0 0.0 0.00 0.00 0.00 1009.9
20260506090508 0 0.0 0.0 0.00 0.00 0.00 1010.0
20260506090023 0 0.0 0.0 0.00 0.00 0.00 1010.1
20260506085507 0 0.0 0.0 0.00 0.00 0.00 1010.0
20260506085008 0 0.0 0.0 0.00 0.00 0.00 1010.0
20260506084521 0 0.0 0.0 0.00 0.00 0.00 1010.0
20260506084008 0 0.0 0.0 0.00 0.00 0.00 1009.9
20260506083508 0 0.0 0.0 0.00 0.00 0.00 1009.9
20260506083024 0 0.0 0.0 0.00 0.00 0.00 1010.0
20260506082009 0 0.0 0.0 0.00 0.00 0.00 1010.0
20260506081012 0 0.0 0.0 0.00 0.00 0.00 1009.9
20260506080508 0 0.0 0.0 0.00 0.00 0.00 1010.0
20260506073514 0 0.0 0.0 0.00 0.00 0.00 1010.1
20260506073021 0 0.0 0.0 0.00 0.00 0.00 1010.2
20260506072512 0 0.0 0.0 0.00 0.00 0.00 1010.2
20260506072009 0 0.0 0.0 0.00 0.00 0.00 1010.2